User: anonymous   Login
Location: Theydon Bois
(51.6750°N, 0.1050°E)
Time: 04:11:32
(UTC+00:00)
Language:

SL-16 R/B - Orbit

View from above orbital plane
View from above orbital plane
View from above satellite
View from above satellite

Ground track
Ground track

The orbit data is extracted from the following two-line orbital elements,

1 28353U 04021B   17344.55517079 +.00000243 +00000-0 +15240-3 0  9990
2 28353 071.0026 068.5894 0007222 285.4549 074.5775 14.14205034697088
Epoch (UTC): 10 December 2017 13:19:26
Eccentricity: 0.0007222
inclination: 71.0026°
perigee height: 840 km
apogee height: 850 km
right ascension of ascending node: 68.5894°
argument of perigee: 285.4549°
revolutions per day: 14.14205034
mean anomaly at epoch: 74.5775°
orbit number at epoch: 69708

The dashed part of the orbit path shows where the satellite is in the earth's shadow,  

DLR